Regional Weather Roundup
Issued by NWS Green Bay, WI

Home | Current Version | Previous Version | Graphics & Text | Print | Product List | Glossary Off
Versions: 1 2 3 4 5 6 7 8 9 10 11 12 13 14 15 16 17 18 19 20 21 22 23 24 25 26 27 28 29 30 31 32 33 34 35 36 37 38 39 40 41 42 43 44 45 46 47 48 49 50

000
ASUS43 KGRB 291200
RWRGRB

NORTH-CENTRAL AND NORTHEAST WISCONSIN REGIONAL WEATHER ROUNDUP
NATIONAL WEATHER SERVICE GREEN BAY WI
700 AM CDT FRI JUL 29 2016

WIZ005-009-010>012-018-019-291300-
NORTH CENTRAL WISCONSIN

CITY           SKY/WX    TMP DP  RH WIND       PRES   REMARKS
IRONWOOD       SUNNY     48  46  93 CALM      30.11S
MANITOWISH WTR NOT AVBL
ARBOR VITAE    NOT AVBL
EAGLE RIVER    NOT AVBL
LAND O LAKES   NOT AVBL
RHINELANDER    SUNNY     53  50  89 N3        30.09S
PHILLIPS       NOT AVBL
ANTIGO         NOT AVBL
TOMAHAWK       NOT AVBL
MERRILL        NOT AVBL
$$

WIZ013-073-291300-
NORTHEAST WISCONSIN

CITY           SKY/WX    TMP DP  RH WIND       PRES   REMARKS
IRON MOUNTAIN  MOSUNNY   55  51  86 N5        30.07R
MARINETTE      MOSUNNY  N/A N/A N/A N3        30.05R
$$

WIZ017-030-035>037-045-291300-
CENTRAL WISCONSIN

CITY           SKY/WX    TMP DP  RH WIND       PRES   REMARKS
MEDFORD        NOT AVBL
WAUSAU         PTSUNNY   59  52  77 N3        30.04R
MOSINEE        MOSUNNY   59  54  82 NE8       30.06R
MARSHFIELD     SUNNY     60  54  80 NE9       30.04R
WISC RAPIDS    MOSUNNY   60  52  74 VRB7      30.05R
STEVENS POINT  NOT AVBL
WAUPACA        NOT AVBL
SHAWANO        NOT AVBL
CLINTONVILLE   NOT AVBL
WAUTOMA        CLOUDY    60  57  89 MISG      30.02S
$$

WIZ038-039-048-051-291300-
FOX VALLEY

CITY           SKY/WX    TMP DP  RH WIND       PRES   REMARKS
NWS GREEN BAY  CLOUDY    61  60  97 N8        30.02S
APPLETON       CLOUDY    61  55  82 NE9       30.01R
OSHKOSH        CLOUDY    65  62  90 NE13      30.00S
FOND DU LAC    CLOUDY    65  62  90 NE8       29.99F
$$

WIZ022-050-052-291300-
EAST CENTRAL WISCONSIN

CITY           SKY/WX    TMP DP  RH WIND       PRES   REMARKS
EPHRAIM        NOT AVBL
WASHINGTON ISL NOT AVBL
STURGEON BAY   CLOUDY    65  63  93 E3        30.04S
MANITOWOC      NOT AVBL
SHEBOYGAN      CLOUDY    66  64  93 NE9       29.99S
$$

LMZ563-521-522-541>543-291300-
LAKESHORE

STATION/POSITION TIME  TEMP    WIND        PRES    VSBY  WAVE
                       AIR SEA DIR/SP/G                  HT/PER
                 (UTC) (F)     (DEG/KT/KT) (MB)    (MI)  (FT/S)
SHEBOYGAN LKSHOR 1100   61     350/ 13/ 13 1015.7R
KEWAUNEE LKSHORE 1100   64      50/  7/ 10 1015.7S
NORTHPORT PIER   1100   66     360/  3/  4 1016.9S
N MID LAKE BUOY  1050   68 69  100/ 14/ 16 1015.9S         2/ 4
SISTER BAY LKSHO 1106   63        CALM       N/A
CHAMBERS ISLAND  1100   66      30/  7/ 10 1016.9S
MENOMINEE LKSHOR 1100   62     350/  9/ 12 1016.2R
$$




USA.gov is the U.S. government's official web portal to all federal, state and local government web resources and services.